Weather History for New Delhi, India

Change the Weather History Date:

Sunday, January 6, 2013

  Actual Average Record
Temperature  
Mean Temperature 44 °F -  
Max Temperature 50 °F 67 °F - (-1)
Min Temperature 39 °F 45 °F - (-1)
Degree Days  
Heating Degree Days 20    
Moisture  
Dew Point 43 °F    
Average Humidity 98    
Maximum Humidity 100    
Minimum Humidity 82    
Precipitation  
Precipitation 0.00 in - - ()
Sea Level Pressure  
Sea Level Pressure 30.04 in    
Wind  
Wind Speed 4 mph ()    
Max Wind Speed 8 mph    
Max Gust Speed -    
Visibility 0.6 miles    
Events Fog    
Averages and records for this station are not official NWS values.
T = Trace of Precipitation, MM = Missing Value Source: Averaged Metar Reports

Daily Weather History Graph

Daily Weather History Graph

Search for Another Location

Airport:

Trip Planner

Search our weather history database for the weather conditions in past years. The results will help you decide how hot, cold, wet, or windy it might be!

Date:

Astronomy

Jan. 06, 2013 Rise Set
Actual Time 7:15 AM IST 5:39 PM IST
Civil Twilight 6:49 AM IST 6:05 PM IST
Nautical Twilight 6:20 AM IST 6:34 PM IST
Astronomical Twilight 5:51 AM IST 7:03 PM IST
Moon 1:11 AM IST (1/6) 12:37 PM IST (1/6)
Length of Visible Light 11h 16m
Length of Day
10h 24m
Last Quarter, 38% of the Moon is Illuminated
Jan 6
Last Quarter
Jan 12
New
Jan 19
First Quarter
Jan 27
Full
Feb 3
Last Quarter

Hourly Weather History & Observations

Time (IST) Temp. Windchill Dew Point Humidity Pressure Visibility Wind Dir Wind Speed Gust Speed Precip Events Conditions
12:30 AM 39.2 °F - 39.2 °F 100% 30.01 in 0.1 mi Calm Calm - N/A Fog Fog
1:00 AM 39.2 °F - 39.2 °F 100% 30.01 in 0.1 mi Calm Calm - N/A Fog Fog
1:30 AM 39.2 °F - 39.2 °F 100% 30.01 in 0.1 mi Calm Calm - N/A Fog Fog
2:00 AM 39.2 °F 35.9 °F 39.2 °F 100% 30.01 in 0.2 mi North 4.6 mph - N/A Fog Fog
2:30 AM 41.0 °F 38.0 °F 41.0 °F 100% 30.01 in 0.3 mi NNW 4.6 mph - N/A Fog Shallow Fog
3:00 AM 41.0 °F 38.0 °F 41.0 °F 100% 30.01 in 0.3 mi NW 4.6 mph - N/A Fog Shallow Fog
3:30 AM 41.0 °F 37.1 °F 41.0 °F 100% 30.01 in 0.3 mi NNW 5.8 mph - N/A Fog Shallow Fog
4:00 AM 41.0 °F 38.0 °F 41.0 °F 100% 30.01 in 0.4 mi North 4.6 mph - N/A Fog Shallow Fog
5:30 AM 41.0 °F 37.1 °F 41.0 °F 100% 30.01 in 0.5 mi NW 5.8 mph - N/A Fog Shallow Fog
6:00 AM 41.0 °F 35.8 °F 41.0 °F 100% 30.01 in 0.5 mi NW 8.1 mph - N/A Fog Shallow Fog
6:30 AM 41.0 °F 36.4 °F 41.0 °F 100% 30.04 in 0.4 mi WNW 6.9 mph - N/A Fog Shallow Fog
7:00 AM 39.2 °F 35.0 °F 39.2 °F 100% 30.04 in 0.4 mi NW 5.8 mph - N/A Fog Shallow Fog
7:30 AM 39.2 °F 35.0 °F 39.2 °F 100% 30.04 in 0.4 mi NW 5.8 mph - N/A Fog Shallow Fog
8:00 AM 39.2 °F 35.0 °F 39.2 °F 100% 30.04 in 0.4 mi WNW 5.8 mph - N/A Fog Shallow Fog
8:30 AM 39.2 °F 35.9 °F 39.2 °F 100% 30.04 in 0.4 mi WNW 4.6 mph - N/A Fog Shallow Fog
9:00 AM 39.2 °F 35.0 °F 39.2 °F 100% 30.06 in 0.4 mi West 5.8 mph - N/A Fog Shallow Fog
10:00 AM 41.0 °F 37.1 °F 41.0 °F 100% 30.09 in 0.6 mi WNW 5.8 mph - N/A   Mist
10:30 AM 41.0 °F 37.1 °F 41.0 °F 100% 30.12 in 0.6 mi NW 5.8 mph - N/A   Mist
11:00 AM 42.8 °F 38.6 °F 42.8 °F 100% 30.12 in 0.7 mi NW 6.9 mph - N/A   Mist
11:30 AM 42.8 °F 39.3 °F 42.8 °F 100% 30.12 in 0.7 mi NNW 5.8 mph - N/A   Mist
12:00 PM 44.6 °F 41.4 °F 44.6 °F 100% 30.09 in 0.7 mi NW 5.8 mph - N/A   Mist
12:30 PM 44.6 °F 41.4 °F 42.8 °F 93% 30.06 in 0.8 mi WNW 5.8 mph - N/A   Mist
1:00 PM 46.4 °F 43.5 °F 42.8 °F 87% 30.06 in 0.9 mi WNW 5.8 mph - N/A   Mist
1:30 PM 48.2 °F - 42.8 °F 82% 30.06 in 0.9 mi NW 5.8 mph - N/A   Mist
2:30 PM 48.2 °F - 46.4 °F 93% 30.01 in 1.0 mi West 6.9 mph - N/A   Mist
3:00 PM 50.0 °F - 46.4 °F 87% 30.01 in 1.1 mi WNW 5.8 mph - N/A   Mist
3:30 PM 50.0 °F - 46.4 °F 87% 30.01 in 1.1 mi WNW 5.8 mph - N/A   Mist
4:00 PM 50.0 °F - 46.4 °F 87% 30.01 in 1.1 mi West 6.9 mph - N/A   Mist
4:30 PM 50.0 °F - 46.4 °F 87% 30.01 in 1.1 mi West 6.9 mph - N/A   Mist
5:00 PM 48.2 °F - 48.2 °F 100% 30.01 in 1.1 mi West 6.9 mph - N/A   Mist
5:30 PM 48.2 °F - 48.2 °F 100% 30.01 in 1.0 mi West 5.8 mph - N/A   Mist
6:00 PM 46.4 °F 45.2 °F 46.4 °F 100% 30.01 in 1.0 mi West 3.5 mph - N/A   Mist
7:00 PM 44.6 °F - 44.6 °F 100% 30.01 in 0.6 mi Calm Calm - N/A   Mist
8:00 PM 44.6 °F - 44.6 °F 100% 30.01 in 0.4 mi Calm Calm - N/A Fog Shallow Fog
8:30 PM 44.6 °F - 44.6 °F 100% 30.01 in 0.4 mi Calm Calm - N/A Fog Shallow Fog
9:00 PM 44.6 °F - 44.6 °F 100% 30.04 in 0.4 mi Calm Calm - N/A Fog Shallow Fog
9:30 PM 44.6 °F - 44.6 °F 100% 30.04 in 0.3 mi Calm Calm - N/A Fog Fog
10:00 PM 42.8 °F - 42.8 °F 100% 30.04 in 0.3 mi Calm Calm - N/A Fog Fog
10:30 PM 42.8 °F 41.1 °F 42.8 °F 100% 30.06 in 0.2 mi NE 3.5 mph - N/A Fog Fog
11:00 PM 41.0 °F - 41.0 °F 100% 30.06 in 0.2 mi NE 2.3 mph - N/A Fog Fog
11:30 PM 41.0 °F - 41.0 °F 100% 30.06 in 0.2 mi West 2.3 mph - N/A Fog Fog